Regional Weather Roundup
Issued by NWS

Home | Current Version | Previous Version | Text Only | Print | Product List | Glossary On
Versions: 1 2 3 4 5 6 7 8 9 10 11 12 13 14 15 16 17 18 19 20 21 22 23 24 25 26 27 28 29 30 31 32 33 34 35 36 37 38 39 40 41 42 43 44 45 46 47 48 49 50
000
ASUS43 KMKX 160610
RWRWI

WISCONSIN REGIONAL WEATHER ROUNDUP
NATIONAL WEATHER SERVICE MILWAUKEE/SULLIVAN WI
1200 AM CST MON JAN 16 2017

NOTE: "FAIR" INDICATES FEW OR NO CLOUDS BELOW 12,000 FEET WITH NO
SIGNIFICANT WEATHER AND/OR OBSTRUCTIONS TO VISIBILITY.

WIZ001-002-006>008-014>016-023>028-160700-
NORTHWEST WISCONSIN

CITY           SKY/WX    TMP DP  RH WIND       PRES   REMARKS
SUPERIOR ARPT  CLOUDY    20  15  83 SW6       30.16S WCI  12
6HR MIN TEMP:  19; 6HR MAX TEMP:  26;

ASHLAND        CLOUDY    21  14  74 S7        30.17R WCI  12
6HR MIN TEMP:  20; 6HR MAX TEMP:  27;

HAYWARD        CLOUDY     8   3  80 CALM      30.17F HAZE
6HR MIN TEMP:   8; 6HR MAX TEMP:  20;

SIREN          CLOUDY    11   8  87 SE3       30.18S
6HR MIN TEMP:  11; 6HR MAX TEMP:  24;

CUMBERLAND     CLOUDY     9   5  85 S5        30.18F FOG     WCI   0
RICE LAKE      CLOUDY     1  -3  85 CALM      30.21F
6HR MIN TEMP:   1; 6HR MAX TEMP:  16;

CHETEK         CLOUDY     2  -1  87 E3        30.22S
6HR MIN TEMP:   2; 6HR MAX TEMP:  14;

LADYSMITH      CLOUDY    11   8  86 S3        30.22S
6HR MIN TEMP:   7; 6HR MAX TEMP:  19;

EAU CLAIRE     CLOUDY     5   4  95 CALM      30.23F FOG
6HR MIN TEMP:   5; 6HR MAX TEMP:  19;

MENOMONIE      CLOUDY     7   4  88 CALM      30.23F FOG
6HR MIN TEMP:   7; 6HR MAX TEMP:  14;

NEW RICHMOND   CLOUDY    16  13  87 S5        30.20F WCI   9
6HR MIN TEMP:  12; 6HR MAX TEMP:  22;

OSCEOLA        CLOUDY    18  14  85 S8        30.23F WCI   8
6HR MIN TEMP:  17; 6HR MAX TEMP:  21;

$$

WIZ003>005-009-010-017-018-160700-
NORTH CENTRAL WISCONSIN

CITY           SKY/WX    TMP DP  RH WIND       PRES   REMARKS
MANITOWISH WTR CLOUDY    15  10  79 SW6       30.15S WCI   7
6HR MIN TEMP:  15; 6HR MAX TEMP:  22;

ARBOR VITAE    CLOUDY    17  11  79 CALM      30.16F
6HR MIN TEMP:  12; 6HR MAX TEMP:  26;

WOODRUFF       CLOUDY    17  11  79 CALM      30.16F
6HR MIN TEMP:  12; 6HR MAX TEMP:  26;

RHINELANDER    CLOUDY    13   8  81 SW5       30.17F WCI   5
6HR MIN TEMP:  12; 6HR MAX TEMP:  23;

EAGLE RIVER    CLOUDY    14   8  75 CALM      30.15F
6HR MIN TEMP:  14; 6HR MAX TEMP:  22;

LAND O LAKES   CLOUDY    14  10  85 CALM      30.16S
6HR MIN TEMP:  13; 6HR MAX TEMP:  26;

PHILLIPS       CLOUDY     7   4  88 S3        30.17F
6HR MIN TEMP:   7; 6HR MAX TEMP:  21;

TOMAHAWK       CLOUDY     6   3  87 CALM      30.19S
6HR MIN TEMP:   6; 6HR MAX TEMP:  20;

MEDFORD        CLOUDY    15  10  80 S6        30.19F WCI   6
6HR MIN TEMP:   6; 6HR MAX TEMP:  15;

MERRILL        CLOUDY    -2  -5  86 CALM        N/A
6HR MIN TEMP:  -4; 6HR MAX TEMP:  16;

$$

WIZ029-030-035-036-043>047-160700-
CENTRAL WISCONSIN

CITY           SKY/WX    TMP DP  RH WIND       PRES   REMARKS
WAUSAU         CLOUDY     4   0  83 SE3       30.22S FOG
6HR MIN TEMP:   2; 6HR MAX TEMP:  20;

MOSINEE        CLOUDY    14  12  92 CALM      30.23S
MARSHFIELD     CLOUDY    15  11  83 SW5       30.21F WCI   8
6HR MIN TEMP:   9; 6HR MAX TEMP:  16;

STEVENS POINT  CLOUDY     0  -2  88 CALM      30.25S
6HR MIN TEMP:  -1; 6HR MAX TEMP:  12;

WAUPACA        CLOUDY    10   6  85 CALM      30.26F
6HR MIN TEMP:   9; 6HR MAX TEMP:  19;

WAUTOMA        CLOUDY     8   4  83 CALM      30.27F
6HR MIN TEMP:   7; 6HR MAX TEMP:  19;

WISC RAPIDS    CLOUDY     7   5  91 CALM      30.26S FOG
6HR MIN TEMP:   7; 6HR MAX TEMP:  16;

CAMP DOUGLAS   CLOUDY    12  10  89 CALM      30.25F
6HR MIN TEMP:  10; 6HR MAX TEMP:  18;

$$

WIZ011>013-019>022-031-037>040-048>050-160700-
NORTHEAST WISCONSIN

CITY           SKY/WX    TMP DP  RH WIND       PRES   REMARKS
ANTIGO         CLOUDY     0  -2  91 CALM      30.20F
6HR MIN TEMP:  -2; 6HR MAX TEMP:  15;

SHAWANO        CLOUDY    13   9  85 CALM      30.26S
6HR MIN TEMP:  12; 6HR MAX TEMP:  24;

OCONTO         CLOUDY     7   4  87 CALM      30.26S
6HR MIN TEMP:   7; 6HR MAX TEMP:  21;

STURGEON BAY   CLOUDY    19  11  70 SW6       30.26S WCI  11
6HR MIN TEMP:  17; 6HR MAX TEMP:  20;

GREEN BAY      CLOUDY    17  12  80 SW6       30.26F WCI   9
6HR MIN TEMP:  10; 6HR MAX TEMP:  20;

MANITOWOC      CLOUDY    11   8  88 CALM      30.28F
6HR MIN TEMP:   7; 6HR MAX TEMP:  16;

APPLETON       CLOUDY    18  10  73 S6        30.24F WCI   9
CLINTONVILLE   CLOUDY     7   3  85 CALM      30.26S
OSHKOSH        CLOUDY    18  12  77 SW6       30.26F WCI  10
6HR MIN TEMP:   9; 6HR MAX TEMP:  18;

$$

WIZ032>034-041-042-053>061-160700-
SOUTHWEST WISCONSIN

CITY           SKY/WX    TMP DP  RH WIND       PRES   REMARKS
LA CROSSE      CLOUDY   N/A N/A N/A CALM      30.27S
SPARTA         CLOUDY     9   7  93 CALM      30.27S
6HR MIN TEMP:   9; 6HR MAX TEMP:  17;

VIROQUA        CLOUDY    24  17  74 CALM      30.23F
6HR MIN TEMP:  21; 6HR MAX TEMP:  27;

BOSCOBEL       CLOUDY    19  16  88 CALM      30.28F FOG
6HR MIN TEMP:  19; 6HR MAX TEMP:  27;

PRAIRIE DU CHI CLOUDY    21  17  83 CALM      30.27S
6HR MIN TEMP:  21; 6HR MAX TEMP:  27;

PLATTEVILLE    CLOUDY    28  21  75 SE5       30.25F WCI  23
6HR MIN TEMP:  26; 6HR MAX TEMP:  28;

$$

WIZ056-057-062-063-064-067-068-160700-
SOUTH CENTRAL WISCONSIN

CITY           SKY/WX    TMP DP  RH WIND       PRES   REMARKS
REEDSBURG      CLOUDY    16  14  91 CALM      30.26F
6HR MIN TEMP:  16; 6HR MAX TEMP:  25;

BARABOO/DELLS  CLOUDY    17  12  83 CALM      30.26S
6HR MIN TEMP:  17; 6HR MAX TEMP:  23;

LONE ROCK      PTCLDY    19  15  84 CALM      30.28F
6HR MIN TEMP:  17; 6HR MAX TEMP:  23;

MINERAL POINT  CLOUDY    27  21  80 SE3       30.24F
MADISON        PTCLDY    21  17  84 MISG      30.27S
6HR MIN TEMP:  21; 6HR MAX TEMP:  28;

MIDDLETON      PTCLDY    23  20  89 CALM      30.27F
6HR MIN TEMP:  21; 6HR MAX TEMP:  27;

WATERTOWN      CLOUDY    20  18  92 CALM      30.27F
6HR MIN TEMP:  18; 6HR MAX TEMP:  23;

MONROE         PTCLDY    28  19  69 S3        30.24F
JANESVILLE     CLOUDY    27  21  80 CALM      30.27F
$$

WIZ051-052-058>065-066-070>072-160700-
SOUTHEAST WISCONSIN

CITY           SKY/WX    TMP DP  RH WIND       PRES   REMARKS
MILWAUKEE      CLOUDY    25  18  74 CALM      30.28F
6HR MIN TEMP:  23; 6HR MAX TEMP:  30;

WAUKESHA       CLOUDY    23  18  80 CALM      30.29S
MILWAUKEE/TIMM MOCLDY    23  16  74 CALM      30.29F
RACINE         PTCLDY    27  17  66 SW3       30.30F
6HR MIN TEMP:  23; 6HR MAX TEMP:  27;

KENOSHA        PTCLDY    26  19  74 SW5       30.29F HAZE    WCI  20
6HR MIN TEMP:  22; 6HR MAX TEMP:  27;

FOND DU LAC    CLOUDY     8   4  83 S3        30.27F
6HR MIN TEMP:   7; 6HR MAX TEMP:  16; 6HR PCP: TRACE;

SHEBOYGAN      CLOUDY    13   8  81 SW5       30.28F WCI   5
6HR MIN TEMP:  11; 6HR MAX TEMP:  22;

WEST BEND      CLOUDY    16  14  93 CALM      30.28S
JUNEAU         CLOUDY    20  15  82 CALM      30.28S
6HR MIN TEMP:  18; 6HR MAX TEMP:  23;

$$

LSZ147-162-160700-
LAKE SUPERIOR

STATION/POSITION TIME  TEMP    WIND        PRES    WAVE
                       AIR SEA DIR/SP/G            HT/PER
                 (UTC) (F)     (DEG/KT/KT) (MB)    (FT/S)
DEVILS ISLAND    0600   28     220/ 17/ 23 1021.5R
PORT WING        0540   24     200/  6/ 11 1021.3R
SAXON HARBOR     0540   26     190/  4/ 10 1021.7R
$$

LMZ867-665-643>646-160700-
LAKE MICHIGAN

STATION/POSITION TIME  TEMP    WIND        PRES    WAVE
                       AIR SEA DIR/SP/G            HT/PER
                 (UTC) (F)     (DEG/KT/KT) (MB)    (FT/S)
NORTHPORT PIER   0540   24     230/  2/  7 1023.7F
SISTER BAY       0505   24     240/  9/ 12   N/A
ALGOMA LAKESC1F1C2F2C3F3C4F4C5F5C6F6C7F7C8M1C9M2Ca!



USA.gov is the U.S. government's official web portal to all federal, state and local government web resources and services.